M I D A S
Marine Information and Data Acquisition System
Tripno 374 of the Zeeleeuw from 2002-12-23 07:53:17 to 2002-12-23 15:56:21
Back to CruiseResearch ActivitiesStationsMapUnderway DataData graphs

EquipmentUnitsComments
TimeDGPSUTC
LatitudeDGPSDM.mWGS84
LongitudeDGPSDM.mWGS84
SpeedMeteo Stationm/sRelative wind speed
DirectionMeteo StationdegRelative wind direction
TemperatureMeteo Stationdeg CelciusAir temperature
PressureMeteo StationPaAtmospheric pressure
HumidityMeteo Station%Relative humidity
Missing or incorrect values are displayed as -999
Metereological data collected by the RV Zeeleeuw from 2002-12-23 07:53:17 to 2002-12-23 15:56:21
                                                                                    Next 1000 lines
Time Latitude Longitude Speed Direction Temperature Pressure Humidity
2002-12-23 07:53:24 51°13.611 2°56.075 2.3 216 8.8 101220 91
2002-12-23 07:53:28 51°13.611 2°56.073 1.4 208 8.8 101220 91
2002-12-23 07:53:34 51°13.613 2°56.07 0.8 223 8.8 101220 91
2002-12-23 07:53:38 51°13.613 2°56.067 0.7 222 8.8 101220 91
2002-12-23 07:53:43 51°13.615 2°56.062 0.9 211 8.8 101220 91
2002-12-23 07:53:49 51°13.617 2°56.054 0.8 212 8.8 101220 91
2002-12-23 07:53:54 51°13.62 2°56.047 0.7 213 8.8 101220 91
2002-12-23 07:53:58 51°13.622 2°56.04 0.7 213 8.8 101220 91
2002-12-23 07:54:04 51°13.625 2°56.029 0.5 191 8.8 101220 91
2002-12-23 07:54:08 51°13.627 2°56.021 0.3 187 8.8 101220 91
2002-12-23 07:54:14 51°13.631 2°56.008 0.3 153 8.8 101220 91
2002-12-23 07:54:18 51°13.633 2°55.999 0.5 77 8.8 101220 91
2002-12-23 07:54:24 51°13.636 2°55.985 0.9 73 8.8 101220 91
2002-12-23 07:54:28 51°13.639 2°55.975 0.9 73 8.8 101220 91
2002-12-23 07:54:34 51°13.642 2°55.959 1.1 96 8.8 101220 91
2002-12-23 07:54:38 51°13.644 2°55.948 1.1 88 8.8 101220 91
2002-12-23 07:54:44 51°13.648 2°55.932 1.4 78 8.8 101220 91
2002-12-23 07:54:49 51°13.651 2°55.918 1.5 92 8.8 101220 91
2002-12-23 07:54:53 51°13.653 2°55.907 1.7 76 8.8 101220 91
2002-12-23 07:54:58 51°13.656 2°55.893 1.6 76 8.8 101220 91
2002-12-23 07:55:04 51°13.659 2°55.877 1.7 76 8.8 101220 91
2002-12-23 07:55:09 51°13.662 2°55.864 1.8 76 8.8 101220 91
2002-12-23 07:55:14 51°13.664 2°55.852 1.4 75 8.8 101220 91
2002-12-23 07:55:18 51°13.665 2°55.843 1.2 75 8.8 101220 91
2002-12-23 07:55:23 51°13.667 2°55.832 1.4 54 8.8 101220 91
2002-12-23 07:55:28 51°13.669 2°55.822 1.5 55 8.7 101220 91
2002-12-23 07:55:34 51°13.67 2°55.809 1 57 8.7 101220 91
2002-12-23 07:55:38 51°13.671 2°55.802 1.1 62 8.7 101220 91
2002-12-23 07:55:43 51°13.671 2°55.793 0.9 126 8.7 101220 91
2002-12-23 07:55:48 51°13.672 2°55.786 1.7 119 8.7 101220 91
2002-12-23 07:55:54 51°13.672 2°55.78 1.6 129 8.7 101220 91
2002-12-23 07:55:58 51°13.672 2°55.777 1.6 137 8.7 101220 91
2002-12-23 07:56:03 51°13.672 2°55.774 1.5 107 8.7 101220 91
2002-12-23 07:56:08 51°13.672 2°55.772 1.8 111 8.7 101220 91
2002-12-23 07:56:14 51°13.673 2°55.77 1.8 132 8.7 101220 91
2002-12-23 07:56:18 51°13.674 2°55.77 2.7 135 8.7 101220 91
2002-12-23 07:56:22 51°13.674 2°55.769 2.3 127 8.7 101220 91
2002-12-23 07:56:28 51°13.676 2°55.769 2.2 120 8.7 101220 91
2002-12-23 07:56:34 51°13.678 2°55.77 2.1 95 8.7 101220 91
2002-12-23 07:56:38 51°13.679 2°55.77 1.9 95 8.7 101220 91
2002-12-23 07:56:42 51°13.681 2°55.77 2 117 8.7 101220 91
2002-12-23 07:56:48 51°13.684 2°55.77 1.4 114 8.7 101220 91
2002-12-23 07:56:53 51°13.687 2°55.769 1 115 8.7 101220 91
2002-12-23 07:56:58 51°13.69 2°55.768 0.9 108 8.7 101220 91
2002-12-23 07:57:04 51°13.695 2°55.766 0.6 115 8.7 101220 91
2002-12-23 07:57:08 51°13.698 2°55.764 0.6 121 8.7 101220 91
2002-12-23 07:57:14 51°13.703 2°55.759 0.3 127 8.7 101220 91
2002-12-23 07:57:18 51°13.707 2°55.755 0.4 128 8.7 101220 91
2002-12-23 07:57:24 51°13.713 2°55.748 0.2 130 8.7 101220 91
2002-12-23 07:57:26 51°13.715 2°55.746 0.2 132 8.7 101210 91
2002-12-23 07:57:34 51°13.725 2°55.736 0.7 185 8.7 101210 91
2002-12-23 07:57:38 51°13.73 2°55.73 0.8 196 8.7 101210 90
2002-12-23 07:57:43 51°13.736 2°55.723 0.8 201 8.7 101210 90
2002-12-23 07:57:49 51°13.745 2°55.713 0.8 201 8.7 101220 91
2002-12-23 07:57:54 51°13.752 2°55.705 0.9 201 8.7 101220 91
2002-12-23 07:57:58 51°13.758 2°55.699 1 201 8.7 101220 90
2002-12-23 07:58:02 51°13.765 2°55.692 1.1 208 8.7 101220 90
2002-12-23 07:58:08 51°13.775 2°55.683 1.2 208 8.7 101220 90
2002-12-23 07:58:13 51°13.784 2°55.675 1.2 210 8.7 101220 90
2002-12-23 07:58:18 51°13.793 2°55.667 1.3 207 8.7 101220 91
2002-12-23 07:58:22 51°13.801 2°55.66 1.4 208 8.7 101220 91
2002-12-23 07:58:28 51°13.812 2°55.65 1.4 208 8.7 101210 90
2002-12-23 07:58:34 51°13.824 2°55.641 1.6 208 8.7 101210 90
2002-12-23 07:58:38 51°13.831 2°55.634 1.3 208 8.7 101220 91
2002-12-23 07:58:44 51°13.843 2°55.624 1.4 219 8.7 101220 91
2002-12-23 07:58:48 51°13.851 2°55.618 1.6 220 8.7 101210 91
2002-12-23 07:58:54 51°13.864 2°55.608 1.6 219 8.7 101210 91
2002-12-23 07:58:58 51°13.872 2°55.602 1.6 220 8.7 101210 91
2002-12-23 07:59:03 51°13.883 2°55.594 2.2 220 8.7 101210 91
2002-12-23 07:59:08 51°13.893 2°55.587 2.5 226 8.7 101210 91
2002-12-23 07:59:13 51°13.904 2°55.579 2.4 217 8.7 101210 91
2002-12-23 07:59:18 51°13.915 2°55.571 2.2 221 8.7 101210 91
2002-12-23 07:59:22 51°13.923 2°55.565 2.5 226 8.7 101210 91
2002-12-23 07:59:28 51°13.936 2°55.556 2.6 223 8.7 101210 90
2002-12-23 07:59:34 51°13.949 2°55.546 2.1 224 8.7 101210 90
2002-12-23 07:59:38 51°13.957 2°55.54 1.8 224 8.7 101210 91
2002-12-23 07:59:42 51°13.966 2°55.534 2 221 8.7 101210 91
2002-12-23 07:59:48 51°13.979 2°55.525 2.3 220 8.7 101210 91
2002-12-23 07:59:54 51°13.992 2°55.516 2.5 227 8.7 101210 91
2002-12-23 07:59:58 51°14.001 2°55.509 2.6 228 8.7 101210 91
2002-12-23 08:00:03 51°14.012 2°55.501 2.9 227 8.7 101210 91
2002-12-23 08:00:08 51°14.024 2°55.492 2.8 225 8.7 101210 91
2002-12-23 08:00:13 51°14.036 2°55.483 2.7 224 8.7 101210 91
2002-12-23 08:00:18 51°14.049 2°55.473 3 228 8.7 101210 91
2002-12-23 08:00:22 51°14.059 2°55.466 2.9 230 8.7 101210 91
2002-12-23 08:00:28 51°14.075 2°55.453 2.7 222 8.7 101210 91
2002-12-23 08:00:34 51°14.092 2°55.44 2.8 226 8.7 101210 91
2002-12-23 08:00:38 51°14.103 2°55.431 3.5 236 8.7 101210 91
2002-12-23 08:00:42 51°14.115 2°55.422 3 226 8.7 101210 91
2002-12-23 08:00:48 51°14.132 2°55.408 3.4 226 8.7 101210 91
2002-12-23 08:00:54 51°14.149 2°55.393 3.5 228 8.7 101210 91
2002-12-23 08:00:58 51°14.161 2°55.382 3.7 232 8.6 101210 91
2002-12-23 08:01:04 51°14.178 2°55.365 4.2 235 8.6 101210 91
2002-12-23 08:01:08 51°14.189 2°55.353 4 235 8.6 101210 91
2002-12-23 08:01:14 51°14.206 2°55.335 3.8 232 8.6 101210 91
2002-12-23 08:01:18 51°14.216 2°55.322 4.1 232 8.6 101210 91
2002-12-23 08:01:23 51°14.229 2°55.306 3.7 234 8.6 101210 91
2002-12-23 08:01:28 51°14.242 2°55.288 3.8 235 8.6 101210 90
2002-12-23 08:01:34 51°14.256 2°55.266 4.2 235 8.6 101210 90
2002-12-23 08:01:38 51°14.265 2°55.251 4.2 236 8.6 101210 90
2002-12-23 08:01:43 51°14.277 2°55.231 4.3 231 8.6 101210 90
2002-12-23 08:01:48 51°14.289 2°55.21 4.3 238 8.6 101210 90
2002-12-23 08:01:53 51°14.299 2°55.188 4.9 235 8.6 101210 90
2002-12-23 08:01:58 51°14.311 2°55.166 4.9 239 8.6 101210 90
2002-12-23 08:02:02 51°14.32 2°55.148 5.1 239 8.6 101210 90
2002-12-23 08:02:08 51°14.334 2°55.12 5 241 8.6 101210 90
2002-12-23 08:02:14 51°14.348 2°55.092 4.7 236 8.6 101210 90
2002-12-23 08:02:18 51°14.358 2°55.074 4.9 241 8.6 101210 90
2002-12-23 08:02:24 51°14.373 2°55.048 4.8 235 8.6 101210 90
2002-12-23 08:02:28 51°14.384 2°55.031 4.5 233 8.6 101210 90
2002-12-23 08:02:34 51°14.401 2°55.005 4.3 239 8.6 101210 90
2002-12-23 08:02:38 51°14.412 2°54.988 4.4 235 8.6 101220 90
2002-12-23 08:02:43 51°14.426 2°54.967 4.2 238 8.6 101220 90
2002-12-23 08:02:48 51°14.44 2°54.947 4.6 240 8.6 101220 91
2002-12-23 08:02:54 51°14.457 2°54.923 4.7 238 8.6 101220 91
2002-12-23 08:02:58 51°14.469 2°54.908 4.8 237 8.6 101220 91
2002-12-23 08:03:02 51°14.482 2°54.893 4.8 233 8.6 101220 91
2002-12-23 08:03:08 51°14.5 2°54.871 4.2 236 8.6 101210 91
2002-12-23 08:03:14 51°14.519 2°54.852 4.6 233 8.6 101210 91
2002-12-23 08:03:18 51°14.532 2°54.84 4.4 238 8.6 101220 91
2002-12-23 08:03:23 51°14.549 2°54.826 4.3 230 8.6 101220 91
2002-12-23 08:03:28 51°14.567 2°54.813 4.2 231 8.6 101220 91
2002-12-23 08:03:34 51°14.588 2°54.801 4.3 224 8.6 101220 91
2002-12-23 08:03:38 51°14.602 2°54.794 4.5 225 8.6 101220 91
2002-12-23 08:03:42 51°14.616 2°54.788 4.2 218 8.6 101220 91
2002-12-23 08:03:48 51°14.637 2°54.779 4 219 8.5 101220 91
2002-12-23 08:03:52 51°14.651 2°54.774 3.6 211 8.5 101220 91
2002-12-23 08:03:58 51°14.672 2°54.768 3.9 212 8.6 101220 91
2002-12-23 08:04:03 51°14.69 2°54.763 3.8 212 8.6 101220 91
2002-12-23 08:04:08 51°14.707 2°54.759 3.4 212 8.5 101220 91
2002-12-23 08:04:14 51°14.729 2°54.754 3.9 218 8.5 101220 91
2002-12-23 08:04:18 51°14.743 2°54.751 3.7 216 8.6 101220 91
2002-12-23 08:04:23 51°14.761 2°54.749 3.6 216 8.6 101220 91
2002-12-23 08:04:28 51°14.778 2°54.747 4.1 213 8.6 101220 91
2002-12-23 08:04:34 51°14.8 2°54.744 4.3 215 8.6 101220 91
2002-12-23 08:04:38 51°14.814 2°54.742 4.7 225 8.6 101220 91
2002-12-23 08:04:42 51°14.828 2°54.74 4.5 220 8.6 101220 91
2002-12-23 08:04:48 51°14.849 2°54.736 4.6 221 8.6 101220 91
2002-12-23 08:04:53 51°14.866 2°54.73 4 225 8.6 101220 91
2002-12-23 08:04:58 51°14.884 2°54.722 3.7 224 8.6 101220 91
2002-12-23 08:05:02 51°14.897 2°54.715 3.7 227 8.6 101220 91
2002-12-23 08:05:08 51°14.917 2°54.701 3.9 235 8.6 101220 91
2002-12-23 08:05:14 51°14.937 2°54.687 3.4 230 8.6 101220 91
2002-12-23 08:05:18 51°14.95 2°54.678 3.4 229 8.6 101220 91
2002-12-23 08:05:24 51°14.97 2°54.666 3.7 221 8.6 101220 91
2002-12-23 08:05:28 51°14.983 2°54.66 3.7 221 8.6 101220 91
2002-12-23 08:05:33 51°15 2°54.651 3.4 221 8.6 101220 91
2002-12-23 08:05:38 51°15.018 2°54.643 3.5 223 8.6 101220 91
2002-12-23 08:05:43 51°15.034 2°54.636 3.8 214 8.6 101220 91
2002-12-23 08:05:48 51°15.051 2°54.631 3.7 218 8.6 101220 91
2002-12-23 08:05:53 51°15.068 2°54.627 3.6 209 8.6 101220 91
2002-12-23 08:05:58 51°15.085 2°54.624 3.6 213 8.6 101220 91
2002-12-23 08:06:04 51°15.105 2°54.623 3.2 200 8.6 101220 91
2002-12-23 08:06:08 51°15.119 2°54.623 3.3 195 8.6 101220 91
2002-12-23 08:06:14 51°15.138 2°54.624 3.9 198 8.6 101220 91
2002-12-23 08:06:18 51°15.152 2°54.626 3.6 199 8.6 101220 91
2002-12-23 08:06:23 51°15.168 2°54.629 4.2 196 8.6 101220 91
2002-12-23 08:06:28 51°15.185 2°54.633 4.5 196 8.6 101210 91
2002-12-23 08:06:34 51°15.204 2°54.639 4.3 194 8.6 101210 91
2002-12-23 08:06:38 51°15.217 2°54.643 4.1 193 8.6 101220 91
2002-12-23 08:06:42 51°15.23 2°54.646 3.4 193 8.6 101220 91
2002-12-23 08:06:48 51°15.25 2°54.648 3.4 196 8.6 101220 91
2002-12-23 08:06:53 51°15.267 2°54.648 3.3 199 8.6 101220 91
2002-12-23 08:06:58 51°15.284 2°54.644 2.8 197 8.6 101210 91
2002-12-23 08:07:04 51°15.304 2°54.636 2.6 213 8.6 101210 91
2002-12-23 08:07:09 51°15.321 2°54.627 2.5 220 8.6 101210 91
2002-12-23 08:07:12 51°15.331 2°54.622 2.4 223 8.6 101210 91
2002-12-23 08:07:18 51°15.35 2°54.61 2.4 219 8.6 101210 90
2002-12-23 08:07:24 51°15.369 2°54.597 3 223 8.6 101210 90
2002-12-23 08:07:27 51°15.379 2°54.591 3 225 8.6 101220 90
2002-12-23 08:07:34 51°15.403 2°54.577 3.1 221 8.6 101220 90
2002-12-23 08:07:38 51°15.416 2°54.569 3 221 8.5 101210 90
2002-12-23 08:07:43 51°15.433 2°54.561 3 214 8.5 101210 90
2002-12-23 08:07:48 51°15.45 2°54.555 3.3 211 8.5 101210 90
2002-12-23 08:07:53 51°15.468 2°54.549 3.5 208 8.5 101210 90
2002-12-23 08:07:58 51°15.485 2°54.545 3.5 209 8.5 101210 90
2002-12-23 08:08:02 51°15.499 2°54.542 3.6 209 8.5 101210 90
2002-12-23 08:08:08 51°15.52 2°54.538 3.4 204 8.5 101220 90
2002-12-23 08:08:14 51°15.542 2°54.535 3.8 204 8.5 101220 90
2002-12-23 08:08:18 51°15.556 2°54.532 3.6 208 8.5 101210 90
2002-12-23 08:08:24 51°15.577 2°54.527 3.3 210 8.5 101210 90
2002-12-23 08:08:28 51°15.591 2°54.522 3.3 212 8.5 101210 90
2002-12-23 08:08:34 51°15.612 2°54.513 3.1 211 8.5 101210 90
2002-12-23 08:08:38 51°15.626 2°54.507 3.3 215 8.5 101210 90
2002-12-23 08:08:43 51°15.644 2°54.499 3.3 217 8.5 101210 90
2002-12-23 08:08:48 51°15.661 2°54.49 3.2 217 8.5 101210 90
2002-12-23 08:08:54 51°15.681 2°54.479 3.1 216 8.5 101210 90
2002-12-23 08:08:58 51°15.695 2°54.472 3.1 216 8.4 101210 90
2002-12-23 08:09:04 51°15.715 2°54.463 3.2 211 8.4 101210 90
2002-12-23 08:09:09 51°15.733 2°54.459 3.4 209 8.4 101210 90
2002-12-23 08:09:14 51°15.75 2°54.456 4 205 8.4 101210 90
2002-12-23 08:09:18 51°15.764 2°54.455 3.4 201 8.4 101210 90
2002-12-23 08:09:24 51°15.785 2°54.455 3.9 202 8.4 101210 90
2002-12-23 08:09:28 51°15.798 2°54.456 3.7 197 8.4 101220 90
2002-12-23 08:09:34 51°15.818 2°54.458 3.8 191 8.4 101220 90
2002-12-23 08:09:38 51°15.832 2°54.459 3.9 196 8.4 101210 90
2002-12-23 08:09:42 51°15.845 2°54.46 4.1 198 8.4 101210 90
2002-12-23 08:09:48 51°15.865 2°54.463 4 200 8.4 101210 90
2002-12-23 08:09:54 51°15.885 2°54.465 4.1 201 8.4 101210 90
2002-12-23 08:09:58 51°15.898 2°54.466 4.1 197 8.4 101210 90
2002-12-23 08:10:03 51°15.914 2°54.467 3.6 192 8.4 101210 90
2002-12-23 08:10:07 51°15.927 2°54.468 3.9 196 8.4 101210 90
2002-12-23 08:10:14 51°15.95 2°54.47 3.5 195 8.4 101210 90
2002-12-23 08:10:18 51°15.963 2°54.47 3.5 194 8.4 101200 90
2002-12-23 08:10:24 51°15.983 2°54.471 3.6 197 8.4 101200 90
2002-12-23 08:10:28 51°15.996 2°54.471 3.2 194 8.4 101210 90
2002-12-23 08:10:34 51°16.015 2°54.472 3.2 191 8.4 101210 90
2002-12-23 08:10:38 51°16.026 2°54.472 3 190 8.4 101200 90
2002-12-23 08:10:43 51°16.041 2°54.472 2.8 187 8.4 101200 90
2002-12-23 08:10:48 51°16.055 2°54.473 3 175 8.4 101210 90
2002-12-23 08:10:54 51°16.07 2°54.475 3.5 169 8.4 101210 90
2002-12-23 08:10:58 51°16.079 2°54.476 3.3 174 8.4 101200 90
2002-12-23 08:11:02 51°16.088 2°54.478 3.1 172 8.4 101200 90
2002-12-23 08:11:08 51°16.101 2°54.481 3.2 164 8.4 101200 90
2002-12-23 08:11:14 51°16.113 2°54.484 3.4 164 8.4 101200 90
2002-12-23 08:11:18 51°16.121 2°54.485 3 162 8.3 101210 90
2002-12-23 08:11:24 51°16.132 2°54.487 2.5 146 8.3 101210 90
2002-12-23 08:11:28 51°16.139 2°54.487 2.4 141 8.3 101200 90
2002-12-23 08:11:34 51°16.149 2°54.485 1.9 118 8.3 101200 90
2002-12-23 08:11:38 51°16.155 2°54.482 1.7 116 8.3 101200 90
2002-12-23 08:11:44 51°16.163 2°54.476 1.5 82 8.3 101200 90
2002-12-23 08:11:48 51°16.169 2°54.471 1.6 81 8.3 101200 90
2002-12-23 08:11:54 51°16.175 2°54.462 1.6 47 8.3 101200 90
2002-12-23 08:11:58 51°16.179 2°54.456 1.5 316 8.2 101210 90
2002-12-23 08:12:02 51°16.183 2°54.448 0.6 8 8.2 101210 90
2002-12-23 08:12:08 51°16.188 2°54.438 0.4 342 8.2 101210 90
2002-12-23 08:12:14 51°16.192 2°54.426 0.6 346 8.2 101210 90
2002-12-23 08:12:18 51°16.194 2°54.418 1.6 348 8.2 101200 90
2002-12-23 08:12:24 51°16.196 2°54.405 1.2 334 8.2 101200 90
2002-12-23 08:12:28 51°16.198 2°54.396 0.8 339 8.2 101210 90
2002-12-23 08:12:34 51°16.2 2°54.383 1.2 326 8.2 101210 90
2002-12-23 08:12:38 51°16.2 2°54.374 1.1 347 8.2 101210 90
2002-12-23 08:12:42 51°16.202 2°54.365 2.5 345 8.2 101210 90
2002-12-23 08:12:48 51°16.204 2°54.351 1.9 355 8.2 101200 90
2002-12-23 08:12:54 51°16.206 2°54.34 2.9 1 8.2 101200 90
2002-12-23 08:12:58 51°16.207 2°54.332 2.9 5 8.1 101200 90
2002-12-23 08:13:03 51°16.208 2°54.324 3.4 29 8.1 101200 90
2002-12-23 08:13:08 51°16.209 2°54.318 3.6 26 8.2 101200 90
2002-12-23 08:13:13 51°16.21 2°54.313 3.9 32 8.2 101200 90
2002-12-23 08:13:18 51°16.21 2°54.309 4.3 42 8.2 101210 90
2002-12-23 08:13:23 51°16.209 2°54.306 4.2 41 8.2 101210 90
2002-12-23 08:13:27 51°16.208 2°54.304 4.6 43 8.2 101200 90
2002-12-23 08:13:34 51°16.207 2°54.3 4.2 43 8.2 101200 90
2002-12-23 08:13:38 51°16.206 2°54.298 4.4 44 8.2 101210 90
2002-12-23 08:13:43 51°16.205 2°54.296 3.8 43 8.2 101210 90
2002-12-23 08:13:48 51°16.204 2°54.293 3.6 44 8.2 101210 90
2002-12-23 08:13:54 51°16.205 2°54.288 2.8 129 8.2 101210 90
2002-12-23 08:13:58 51°16.207 2°54.285 1.8 59 8.2 101210 91
2002-12-23 08:14:03 51°16.21 2°54.279 1.6 67 8.2 101210 91
2002-12-23 08:14:08 51°16.214 2°54.274 2 73 8.3 101200 91
2002-12-23 08:14:13 51°16.22 2°54.27 2.3 90 8.3 101200 91
2002-12-23 08:14:18 51°16.225 2°54.267 2.4 99 8.4 101210 91
2002-12-23 08:14:22 51°16.23 2°54.266 2.6 111 8.4 101210 91
2002-12-23 08:14:28 51°16.236 2°54.264 2.5 109 8.4 101210 91
2002-12-23 08:14:34 51°16.242 2°54.263 2.8 117 8.4 101210 91
2002-12-23 08:14:38 51°16.245 2°54.263 2.9 118 8.4 101200 91
2002-12-23 08:14:43 51°16.25 2°54.263 3.2 127 8.4 101200 91
2002-12-23 08:14:48 51°16.254 2°54.263 3.5 116 8.4 101210 91
2002-12-23 08:14:54 51°16.259 2°54.264 3.3 122 8.4 101210 91
2002-12-23 08:14:58 51°16.261 2°54.264 3.4 120 8.4 101210 91
2002-12-23 08:15:03 51°16.262 2°54.263 3.5 114 8.4 101210 91
2002-12-23 08:15:08 51°16.263 2°54.262 4.2 116 8.4 101210 91
2002-12-23 08:15:14 51°16.264 2°54.259 3.8 117 8.4 101210 91
2002-12-23 08:15:18 51°16.264 2°54.258 3.9 116 8.4 101200 90
2002-12-23 08:15:22 51°16.264 2°54.256 3.9 118 8.4 101200 90
2002-12-23 08:15:28 51°16.264 2°54.254 3.9 120 8.4 101200 90
2002-12-23 08:15:34 51°16.264 2°54.252 3.5 117 8.4 101200 90
2002-12-23 08:15:38 51°16.265 2°54.251 3.7 122 8.4 101200 90
2002-12-23 08:15:43 51°16.265 2°54.249 3.8 123 8.4 101200 90
2002-12-23 08:15:48 51°16.265 2°54.248 3.6 124 8.3 101210 90
2002-12-23 08:15:54 51°16.266 2°54.246 4 127 8.3 101210 90
2002-12-23 08:15:58 51°16.266 2°54.245 3.6 124 8.4 101210 90
2002-12-23 08:16:02 51°16.266 2°54.244 3.7 129 8.4 101210 90
2002-12-23 08:16:08 51°16.266 2°54.242 4.1 129 8.4 101210 90
2002-12-23 08:16:14 51°16.267 2°54.241 3.8 127 8.4 101210 90
2002-12-23 08:16:18 51°16.267 2°54.24 4 128 8.4 101210 90
2002-12-23 08:16:23 51°16.267 2°54.239 4 130 8.4 101210 90
2002-12-23 08:16:28 51°16.268 2°54.238 4 131 8.3 101200 90
2002-12-23 08:16:34 51°16.268 2°54.238 3.7 134 8.3 101200 90
2002-12-23 08:16:38 51°16.269 2°54.237 4.1 137 8.3 101210 90
2002-12-23 08:16:44 51°16.269 2°54.236 4.2 138 8.3 101210 90
2002-12-23 08:16:48 51°16.269 2°54.236 4.4 139 8.3 101210 90
2002-12-23 08:16:53 51°16.269 2°54.236 4.1 141 8.3 101210 90
2002-12-23 08:16:58 51°16.269 2°54.235 4.1 140 8.3 101210 90
2002-12-23 08:17:02 51°16.27 2°54.235 4.4 144 8.3 101210 90
2002-12-23 08:17:06 51°16.27 2°54.235 4.2 141 8.3 101200 90
2002-12-23 08:17:14 51°16.27 2°54.234 4.1 142 8.3 101200 90
2002-12-23 08:17:18 51°16.271 2°54.234 3.9 141 8.3 101200 90
2002-12-23 08:17:24 51°16.27 2°54.234 4 146 8.3 101200 90
2002-12-23 08:17:29 51°16.27 2°54.234 3.8 145 8.3 101200 90
2002-12-23 08:17:34 51°16.27 2°54.233 3.7 146 8.3 101200 90
2002-12-23 08:17:38 51°16.27 2°54.233 3.8 147 8.3 101200 90
2002-12-23 08:17:42 51°16.271 2°54.233 3.9 147 8.3 101200 90
2002-12-23 08:17:48 51°16.271 2°54.232 3.8 147 8.2 101200 90
2002-12-23 08:17:54 51°16.271 2°54.232 3.7 147 8.2 101200 90
2002-12-23 08:17:58 51°16.27 2°54.231 4.2 148 8.2 101200 90
2002-12-23 08:18:02 51°16.27 2°54.231 3.9 148 8.2 101200 90
2002-12-23 08:18:08 51°16.271 2°54.231 4.2 151 8.2 101200 90
2002-12-23 08:18:14 51°16.271 2°54.23 4.1 150 8.2 101200 90
2002-12-23 08:18:19 51°16.271 2°54.23 4.3 151 8.2 101200 90
2002-12-23 08:18:22 51°16.271 2°54.229 4.1 151 8.2 101200 90
2002-12-23 08:18:28 51°16.27 2°54.229 4 151 8.2 101200 90
2002-12-23 08:18:34 51°16.27 2°54.228 3.9 153 8.2 101200 90
2002-12-23 08:18:38 51°16.27 2°54.228 4.2 153 8.2 101200 90
2002-12-23 08:18:44 51°16.27 2°54.227 4 157 8.2 101200 90
2002-12-23 08:18:48 51°16.27 2°54.227 4.1 156 8.2 101200 90
2002-12-23 08:18:54 51°16.269 2°54.226 4.1 159 8.2 101200 90
2002-12-23 08:18:58 51°16.269 2°54.226 3.7 159 8.2 101200 90
2002-12-23 08:19:04 51°16.269 2°54.225 4 157 8.2 101200 90
2002-12-23 08:19:08 51°16.268 2°54.225 4.1 159 8.1 101200 90
2002-12-23 08:19:14 51°16.268 2°54.225 3.9 161 8.1 101200 90
2002-12-23 08:19:18 51°16.268 2°54.225 3.8 158 8.1 101200 90
2002-12-23 08:19:23 51°16.268 2°54.224 4 159 8.1 101200 90
2002-12-23 08:19:28 51°16.267 2°54.224 4.2 159 8.1 101200 90
2002-12-23 08:19:34 51°16.267 2°54.224 4 160 8.1 101200 90
2002-12-23 08:19:38 51°16.267 2°54.224 3.9 161 8.1 101200 90
2002-12-23 08:19:43 51°16.266 2°54.223 4.2 160 8.1 101200 90
2002-12-23 08:19:48 51°16.266 2°54.223 4.2 160 8.1 101200 90
2002-12-23 08:19:54 51°16.266 2°54.223 4.1 162 8.1 101200 90
2002-12-23 08:19:58 51°16.265 2°54.223 4.1 167 8.1 101200 90
2002-12-23 08:20:02 51°16.265 2°54.223 4.1 165 8.1 101200 90
2002-12-23 08:20:08 51°16.265 2°54.222 4.2 165 8 101200 90
2002-12-23 08:20:14 51°16.264 2°54.222 4.1 167 8 101200 90
2002-12-23 08:20:18 51°16.264 2°54.222 4.3 168 8 101200 90
2002-12-23 08:20:23 51°16.263 2°54.222 4.2 169 8 101200 90
2002-12-23 08:20:28 51°16.263 2°54.222 4.7 169 8 101200 90
2002-12-23 08:20:33 51°16.262 2°54.222 4.5 173 8 101200 90
2002-12-23 08:20:38 51°16.262 2°54.222 4.4 173 8 101200 90
2002-12-23 08:20:43 51°16.262 2°54.222 4.5 172 8 101200 90
2002-12-23 08:20:49 51°16.261 2°54.222 4.5 173 8 101200 90
2002-12-23 08:20:54 51°16.261 2°54.222 4.6 173 8 101200 90
2002-12-23 08:20:58 51°16.26 2°54.222 4.6 175 8 101200 90
2002-12-23 08:21:04 51°16.26 2°54.221 4.2 177 8 101200 90
2002-12-23 08:21:08 51°16.259 2°54.221 4.3 177 8 101190 91
2002-12-23 08:21:14 51°16.258 2°54.221 4.4 176 8 101190 91
2002-12-23 08:21:18 51°16.258 2°54.221 4.4 174 8 101190 91
2002-12-23 08:21:24 51°16.257 2°54.221 4.3 177 8 101190 91
2002-12-23 08:21:28 51°16.257 2°54.221 4.2 177 8 101190 91
2002-12-23 08:21:34 51°16.256 2°54.22 4.1 179 8 101190 91
2002-12-23 08:21:38 51°16.255 2°54.22 4.1 178 8 101200 91
2002-12-23 08:21:44 51°16.255 2°54.22 4.3 179 8 101200 91
2002-12-23 08:21:48 51°16.255 2°54.22 3.9 180 8 101200 91
2002-12-23 08:21:54 51°16.254 2°54.22 4.1 179 8 101200 91
2002-12-23 08:21:58 51°16.253 2°54.22 4 181 8 101200 91
2002-12-23 08:22:04 51°16.252 2°54.22 4.2 179 8 101200 91
2002-12-23 08:22:08 51°16.252 2°54.22 4.1 179 8.1 101200 91
2002-12-23 08:22:14 51°16.251 2°54.22 3.8 181 8.1 101200 91
2002-12-23 08:22:18 51°16.251 2°54.221 4.1 180 8.1 101190 91
2002-12-23 08:22:24 51°16.251 2°54.221 4.2 180 8.1 101190 91
2002-12-23 08:22:29 51°16.25 2°54.221 4 183 8.1 101190 91
2002-12-23 08:22:34 51°16.25 2°54.221 3.9 182 8.1 101190 91
2002-12-23 08:22:38 51°16.249 2°54.221 3.8 182 8.1 101200 91
2002-12-23 08:22:42 51°16.249 2°54.221 4.7 179 8.1 101200 91
2002-12-23 08:22:48 51°16.248 2°54.221 3.7 185 8.1 101200 91
2002-12-23 08:22:54 51°16.247 2°54.221 4.3 179 8.1 101200 91
2002-12-23 08:22:58 51°16.247 2°54.22 4.6 178 8.1 101200 91
2002-12-23 08:23:04 51°16.246 2°54.22 4.5 176 8.1 101200 91
2002-12-23 08:23:08 51°16.245 2°54.22 4.5 180 8.1 101190 91
2002-12-23 08:23:14 51°16.245 2°54.219 4.6 177 8.1 101190 91
2002-12-23 08:23:18 51°16.244 2°54.219 4.1 179 8.1 101190 91
2002-12-23 08:23:22 51°16.244 2°54.219 4.2 179 8.1 101190 91
2002-12-23 08:23:28 51°16.243 2°54.219 4.5 178 8.1 101200 91
2002-12-23 08:23:34 51°16.242 2°54.219 4 180 8.1 101200 91
2002-12-23 08:23:38 51°16.242 2°54.219 4.1 179 8.1 101190 91
2002-12-23 08:23:44 51°16.242 2°54.219 4.4 178 8.1 101190 91
2002-12-23 08:23:48 51°16.241 2°54.219 4 179 8.1 101190 91
2002-12-23 08:23:54 51°16.24 2°54.219 4.4 178 8.1 101190 91
2002-12-23 08:23:58 51°16.24 2°54.218 4.4 176 8.1 101190 91
2002-12-23 08:24:04 51°16.239 2°54.218 4.9 177 8.1 101190 91
2002-12-23 08:24:08 51°16.239 2°54.218 4.5 179 8.1 101190 91
2002-12-23 08:24:14 51°16.238 2°54.217 4 180 8.1 101190 91
2002-12-23 08:24:18 51°16.238 2°54.217 4.4 179 8.1 101190 91
2002-12-23 08:24:23 51°16.238 2°54.217 5 176 8.1 101190 91
2002-12-23 08:24:28 51°16.237 2°54.218 4.9 177 8.1 101190 91
2002-12-23 08:24:34 51°16.237 2°54.218 4.8 178 8.1 101190 91
2002-12-23 08:24:38 51°16.237 2°54.218 4.4 177 8.1 101190 91
2002-12-23 08:24:43 51°16.237 2°54.218 4.9 176 8.1 101190 91
2002-12-23 08:24:48 51°16.237 2°54.218 4.5 177 8.1 101190 91
2002-12-23 08:24:54 51°16.236 2°54.218 4.8 173 8.1 101190 91
2002-12-23 08:24:58 51°16.236 2°54.218 4.8 171 8.1 101190 91
2002-12-23 08:25:02 51°16.236 2°54.217 5.1 173 8.1 101190 91
2002-12-23 08:25:08 51°16.236 2°54.219 4.8 172 8.1 101190 91
2002-12-23 08:25:14 51°16.237 2°54.222 5.5 172 8.1 101190 91
2002-12-23 08:25:18 51°16.238 2°54.225 5.1 167 8.1 101190 91
2002-12-23 08:25:23 51°16.24 2°54.229 5 157 8.1 101190 91
2002-12-23 08:25:28 51°16.243 2°54.233 5.2 157 8.2 101190 91
2002-12-23 08:25:33 51°16.247 2°54.236 4.6 143 8.2 101190 91
2002-12-23 08:25:38 51°16.252 2°54.239 4.5 144 8.1 101190 91
2002-12-23 08:25:43 51°16.258 2°54.241 4 134 8.1 101190 91
2002-12-23 08:25:49 51°16.265 2°54.241 3.7 134 8.1 101180 91
2002-12-23 08:25:54 51°16.272 2°54.239 3.5 123 8.1 101180 91
2002-12-23 08:25:58 51°16.278 2°54.237 3.3 121 8.1 101180 91
2002-12-23 08:26:04 51°16.286 2°54.231 2.3 105 8.1 101180 91
2002-12-23 08:26:08 51°16.292 2°54.226 2.2 104 8.1 101190 91
2002-12-23 08:26:14 51°16.301 2°54.216 1.6 81 8.1 101190 91
2002-12-23 08:26:18 51°16.306 2°54.207 1.5 68 8.1 101190 91
2002-12-23 08:26:24 51°16.314 2°54.191 1.1 37 8.1 101190 91
2002-12-23 08:26:28 51°16.319 2°54.179 1 36 8.1 101190 91
2002-12-23 08:26:34 51°16.326 2°54.158 0.6 1 8.1 101190 91
2002-12-23 08:26:38 51°16.331 2°54.143 1 313 8.1 101190 91
2002-12-23 08:26:44 51°16.338 2°54.119 1.4 291 8.1 101190 91
2002-12-23 08:26:48 51°16.345 2°54.103 1.3 290 8.1 101190 91
2002-12-23 08:26:54 51°16.355 2°54.077 1.4 266 8.1 101190 91
2002-12-23 08:26:58 51°16.362 2°54.061 1.1 263 8.1 101190 91
2002-12-23 08:27:04 51°16.373 2°54.033 1.8 266 8.1 101190 91
2002-12-23 08:27:08 51°16.38 2°54.015 1.5 261 8.1 101190 91
2002-12-23 08:27:14 51°16.392 2°53.986 2.3 257 8.1 101190 91
2002-12-23 08:27:18 51°16.4 2°53.967 2.2 256 8.1 101190 91
2002-12-23 08:27:23 51°16.41 2°53.943 2.7 255 8.1 101190 91
2002-12-23 08:27:28 51°16.42 2°53.919 2.5 252 8.1 101190 91
2002-12-23 08:27:34 51°16.433 2°53.891 3 249 8.1 101190 91
2002-12-23 08:27:38 51°16.442 2°53.873 3.3 246 8.1 101190 91
2002-12-23 08:27:42 51°16.451 2°53.854 3.2 242 8.1 101190 91
2002-12-23 08:27:48 51°16.464 2°53.827 3.2 240 8.1 101190 91
2002-12-23 08:27:53 51°16.476 2°53.805 3.5 240 8.1 101190 91
2002-12-23 08:27:58 51°16.488 2°53.783 3.2 240 8 101200 91
2002-12-23 08:28:04 51°16.503 2°53.757 3.4 240 8 101200 91
2002-12-23 08:28:08 51°16.513 2°53.74 3.2 240 8 101190 90
2002-12-23 08:28:14 51°16.528 2°53.715 3.2 239 8 101190 90
2002-12-23 08:28:18 51°16.538 2°53.698 3 239 8 101200 90
2002-12-23 08:28:23 51°16.551 2°53.676 3.1 239 8 101200 90
2002-12-23 08:28:28 51°16.563 2°53.656 3 240 8 101200 90
2002-12-23 08:28:34 51°16.578 2°53.631 3 239 8 101200 90
2002-12-23 08:28:38 51°16.589 2°53.614 3 239 7.9 101190 90
2002-12-23 08:28:43 51°16.602 2°53.593 3 239 7.9 101190 90
2002-12-23 08:28:48 51°16.614 2°53.572 2.5 239 7.9 101200 90
2002-12-23 08:28:54 51°16.629 2°53.547 2.9 239 7.9 101200 90
2002-12-23 08:28:58 51°16.639 2°53.531 2.6 240 7.9 101200 90
2002-12-23 08:29:03 51°16.652 2°53.51 2.5 238 7.9 101200 90
2002-12-23 08:29:08 51°16.665 2°53.489 2.2 238 7.9 101190 90
2002-12-23 08:29:14 51°16.68 2°53.464 2.2 238 7.9 101190 90
2002-12-23 08:29:18 51°16.69 2°53.448 2.5 238 7.9 101200 90
2002-12-23 08:29:22 51°16.7 2°53.432 2.1 238 7.9 101200 90
2002-12-23 08:29:28 51°16.716 2°53.407 2.1 238 7.9 101200 91
2002-12-23 08:29:32 51°16.726 2°53.39 2.1 238 7.9 101200 91
2002-12-23 08:29:38 51°16.741 2°53.366 2 238 7.9 101200 91
2002-12-23 08:29:44 51°16.756 2°53.341 2 239 7.9 101200 91
2002-12-23 08:29:48 51°16.766 2°53.325 2.3 239 7.9 101200 91
2002-12-23 08:29:54 51°16.781 2°53.3 2.1 238 7.9 101200 91
2002-12-23 08:29:58 51°16.791 2°53.284 2.2 238 7.9 101200 91
2002-12-23 08:30:04 51°16.806 2°53.259 2.2 238 7.9 101200 91
2002-12-23 08:30:08 51°16.816 2°53.243 2.3 237 7.9 101200 91
2002-12-23 08:30:14 51°16.831 2°53.218 2.7 236 7.9 101200 91
2002-12-23 08:30:18 51°16.841 2°53.201 2.6 237 7.9 101200 91
2002-12-23 08:30:23 51°16.853 2°53.181 2.4 238 7.9 101200 91
2002-12-23 08:30:28 51°16.865 2°53.16 2.8 238 7.9 101200 90
2002-12-23 08:30:34 51°16.88 2°53.136 2.1 240 7.9 101200 90
2002-12-23 08:30:38 51°16.889 2°53.121 2.2 239 7.9 101200 90
2002-12-23 08:30:43 51°16.901 2°53.102 2.2 240 7.9 101200 90
2002-12-23 08:30:48 51°16.912 2°53.083 2 239 7.8 101200 90
2002-12-23 08:30:54 51°16.926 2°53.06 2 241 7.8 101200 90
2002-12-23 08:30:58 51°16.935 2°53.044 2.1 241 7.8 101190 90
2002-12-23 08:31:02 51°16.944 2°53.028 2.2 241 7.8 101190 90
2002-12-23 08:31:08 51°16.958 2°53.004 2.3 240 7.8 101200 90
2002-12-23 08:31:14 51°16.972 2°52.98 2.2 241 7.8 101200 90
2002-12-23 08:31:18 51°16.981 2°52.964 2.5 241 7.8 101200 90
2002-12-23 08:31:23 51°16.992 2°52.943 2.5 245 7.8 101200 90
2002-12-23 08:31:28 51°17.003 2°52.922 2.4 246 7.8 101200 90
2002-12-23 08:31:34 51°17.017 2°52.896 2.6 245 7.8 101200 90
2002-12-23 08:31:38 51°17.026 2°52.879 2.7 245 7.8 101200 90
2002-12-23 08:31:43 51°17.038 2°52.858 2.7 241 7.8 101200 90
2002-12-23 08:31:48 51°17.051 2°52.838 2.6 239 7.8 101200 90
2002-12-23 08:31:53 51°17.064 2°52.818 2.7 239 7.8 101200 90
2002-12-23 08:31:58 51°17.077 2°52.799 2.8 239 7.7 101200 90
2002-12-23 08:32:03 51°17.091 2°52.779 2.9 237 7.7 101200 90
2002-12-23 08:32:08 51°17.105 2°52.761 2.8 238 7.8 101200 90
2002-12-23 08:32:14 51°17.122 2°52.739 2.6 238 7.8 101200 90
2002-12-23 08:32:18 51°17.133 2°52.724 2.9 231 7.7 101200 90
2002-12-23 08:32:24 51°17.149 2°52.702 2.6 237 7.7 101200 90
2002-12-23 08:32:28 51°17.16 2°52.687 2.7 237 7.7 101200 90
2002-12-23 08:32:34 51°17.176 2°52.665 2.8 238 7.7 101200 90
2002-12-23 08:32:38 51°17.186 2°52.65 2.5 238 7.7 101200 90
2002-12-23 08:32:44 51°17.202 2°52.628 2.7 238 7.7 101200 90
2002-12-23 08:32:48 51°17.213 2°52.613 2.9 238 7.7 101190 90
2002-12-23 08:32:52 51°17.223 2°52.598 2.8 238 7.7 101190 90
2002-12-23 08:32:58 51°17.239 2°52.575 2.9 238 7.7 101200 90
2002-12-23 08:33:03 51°17.252 2°52.556 3.1 236 7.7 101200 90
2002-12-23 08:33:08 51°17.265 2°52.537 3.2 235 7.7 101200 90
2002-12-23 08:33:14 51°17.281 2°52.514 3 237 7.7 101200 90
2002-12-23 08:33:22 51°17.302 2°52.483 2.9 241 7.7 101200 90
2002-12-23 08:33:27 51°17.315 2°52.464 2.8 240 7.6 101200 90
2002-12-23 08:33:32 51°17.328 2°52.445 2.8 241 7.6 101200 90
2002-12-23 08:33:38 51°17.344 2°52.421 2.6 241 7.6 101190 90
2002-12-23 08:33:42 51°17.354 2°52.405 2.3 242 7.6 101190 90
2002-12-23 08:33:46 51°17.364 2°52.388 2.3 241 7.6 101200 90
2002-12-23 08:33:52 51°17.379 2°52.364 2.1 241 7.6 101200 90
2002-12-23 08:33:58 51°17.394 2°52.34 2 241 7.6 101200 90
2002-12-23 08:34:02 51°17.404 2°52.323 2.1 241 7.6 101200 90
2002-12-23 08:34:07 51°17.417 2°52.303 1.8 239 7.6 101200 90
2002-12-23 08:34:12 51°17.429 2°52.283 1.9 239 7.6 101200 90
2002-12-23 08:34:18 51°17.444 2°52.258 1.9 238 7.6 101200 90
2002-12-23 08:34:22 51°17.454 2°52.242 2.2 231 7.6 101200 90
2002-12-23 08:34:26 51°17.465 2°52.226 2.2 231 7.6 101200 90
2002-12-23 08:34:32 51°17.48 2°52.203 2 237 7.6 101200 90
2002-12-23 08:34:37 51°17.492 2°52.182 1.9 236 7.6 101190 91
2002-12-23 08:34:42 51°17.505 2°52.162 2 232 7.6 101190 91
2002-12-23 08:34:47 51°17.517 2°52.143 2.1 229 7.6 101190 91
2002-12-23 08:34:52 51°17.53 2°52.122 2.1 229 7.6 101190 91
2002-12-23 08:34:58 51°17.545 2°52.099 2.4 226 7.6 101200 91
2002-12-23 08:35:02 51°17.555 2°52.083 2.9 227 7.6 101200 91
2002-12-23 08:35:06 51°17.565 2°52.067 2.5 232 7.6 101190 91
2002-12-23 08:35:12 51°17.58 2°52.043 2.9 230 7.6 101190 91
2002-12-23 08:35:17 51°17.593 2°52.023 2.8 231 7.6 101190 91
2002-12-23 08:35:22 51°17.606 2°52.003 2.6 233 7.6 101190 91
2002-12-23 08:35:27 51°17.618 2°51.984 2.5 234 7.5 101190 91
2002-12-23 08:35:33 51°17.634 2°51.96 2.8 234 7.5 101190 91
2002-12-23 08:35:36 51°17.641 2°51.948 2.9 236 7.5 101200 91
2002-12-23 08:35:43 51°17.659 2°51.92 2.6 237 7.5 101200 91
2002-12-23 08:35:47 51°17.668 2°51.905 2.7 234 7.5 101190 91
2002-12-23 08:35:53 51°17.683 2°51.881 2.9 238 7.5 101190 91
2002-12-23 08:35:58 51°17.696 2°51.861 2.8 237 7.5 101190 91
2002-12-23 08:36:03 51°17.708 2°51.841 2.6 237 7.5 101190 91
2002-12-23 08:36:07 51°17.718 2°51.825 2.7 237 7.5 101190 91
2002-12-23 08:36:12 51°17.731 2°51.805 2.5 238 7.5 101190 91
2002-12-23 08:36:16 51°17.741 2°51.789 2.6 238 7.5 101190 91
2002-12-23 08:36:22 51°17.756 2°51.766 2.6 237 7.5 101190 91
2002-12-23 08:36:27 51°17.769 2°51.747 2.6 238 7.5 101190 91
2002-12-23 08:36:32 51°17.781 2°51.728 2.6 239 7.5 101190 91
2002-12-23 08:36:38 51°17.797 2°51.705 2.5 238 7.5 101190 91
2002-12-23 08:36:43 51°17.809 2°51.685 2.6 238 7.5 101190 91
2002-12-23 08:36:47 51°17.82 2°51.669 2.8 239 7.5 101190 91
2002-12-23 08:36:53 51°17.835 2°51.646 2.7 239 7.5 101190 91
2002-12-23 08:36:58 51°17.847 2°51.626 2.7 240 7.5 101190 91
2002-12-23 08:37:02 51°17.857 2°51.61 2.6 239 7.5 101190 91
2002-12-23 08:37:07 51°17.87 2°51.59 2.6 241 7.5 101190 91
2002-12-23 08:37:12 51°17.883 2°51.57 2.4 241 7.5 101190 91
2002-12-23 08:37:18 51°17.898 2°51.547 2.3 241 7.5 101190 91
2002-12-23 08:37:22 51°17.909 2°51.531 2.4 241 7.5 101190 91
2002-12-23 08:37:27 51°17.922 2°51.512 2.3 241 7.5 101190 91
2002-12-23 08:37:32 51°17.935 2°51.493 2.2 241 7.5 101190 91
2002-12-23 08:37:38 51°17.951 2°51.471 2.2 241 7.5 101190 91
2002-12-23 08:37:42 51°17.961 2°51.456 2.4 241 7.5 101190 91
2002-12-23 08:37:46 51°17.972 2°51.441 2.2 241 7.5 101190 91
2002-12-23 08:37:53 51°17.991 2°51.415 2 241 7.5 101190 91
2002-12-23 08:37:58 51°18.004 2°51.396 2.2 241 7.5 101190 91
2002-12-23 08:38:02 51°18.015 2°51.382 2 238 7.5 101190 91
2002-12-23 08:38:08 51°18.031 2°51.36 2 240 7.5 101190 91
2002-12-23 08:38:12 51°18.042 2°51.346 2 239 7.5 101190 91
2002-12-23 08:38:18 51°18.059 2°51.324 2.1 239 7.5 101180 91
2002-12-23 08:38:22 51°18.07 2°51.309 1.9 238 7.5 101180 91
2002-12-23 08:38:27 51°18.083 2°51.291 2.3 238 7.5 101180 91
2002-12-23 08:38:32 51°18.097 2°51.272 2.2 237 7.5 101180 91
2002-12-23 08:38:38 51°18.113 2°51.25 2.2 236 7.5 101190 91
2002-12-23 08:38:43 51°18.126 2°51.231 1.9 232 7.5 101190 91
2002-12-23 08:38:47 51°18.137 2°51.216 2 228 7.5 101190 91
2002-12-23 08:38:52 51°18.15 2°51.197 1.7 242 7.5 101190 91
2002-12-23 08:38:58 51°18.166 2°51.175 1.5 228 7.5 101190 91
2002-12-23 08:39:02 51°18.177 2°51.16 1.9 230 7.5 101190 91
2002-12-23 08:39:06 51°18.188 2°51.145 1.8 227 7.5 101190 91
2002-12-23 08:39:13 51°18.207 2°51.121 1.8 225 7.5 101190 91
2002-12-23 08:39:18 51°18.22 2°51.105 1.4 225 7.5 101180 91
2002-12-23 08:39:22 51°18.229 2°51.093 0.8 218 7.5 101180 91
2002-12-23 08:39:27 51°18.241 2°51.079 0.8 211 7.5 101190 91
2002-12-23 08:39:33 51°18.255 2°51.063 0.8 187 7.5 101190 91
2002-12-23 08:39:36 51°18.261 2°51.056 0.9 176 7.5 101190 91
2002-12-23 08:39:43 51°18.276 2°51.041 1.1 150 7.5 101190 91
2002-12-23 08:39:47 51°18.284 2°51.033 1.2 131 7.5 101190 91
2002-12-23 08:39:52 51°18.294 2°51.024 1.4 131 7.5 101190 91
2002-12-23 08:39:58 51°18.305 2°51.014 1.8 131 7.5 101180 91
2002-12-23 08:40:02 51°18.313 2°51.009 2 124 7.5 101180 91
2002-12-23 08:40:07 51°18.322 2°51.003 2.4 125 7.5 101190 91
2002-12-23 08:40:12 51°18.331 2°50.998 3 123 7.5 101190 91
2002-12-23 08:40:17 51°18.34 2°50.994 2.9 129 7.4 101180 91
2002-12-23 08:40:22 51°18.349 2°50.991 2.9 119 7.4 101180 91
2002-12-23 08:40:27 51°18.357 2°50.989 3.4 124 7.4 101180 91
2002-12-23 08:40:32 51°18.365 2°50.987 3.5 132 7.4 101180 91
2002-12-23 08:40:38 51°18.374 2°50.985 3.2 125 7.4 101180 91
2002-12-23 08:40:42 51°18.381 2°50.984 2.9 124 7.4 101180 91
2002-12-23 08:40:46 51°18.387 2°50.983 3.3 122 7.4 101180 91
2002-12-23 08:40:53 51°18.397 2°50.981 3.5 124 7.4 101180 91
2002-12-23 08:40:58 51°18.405 2°50.98 3.5 124 7.4 101190 91
2002-12-23 08:41:02 51°18.411 2°50.979 3.2 121 7.4 101190 91
2002-12-23 08:41:07 51°18.418 2°50.977 3.2 121 7.4 101180 91
2002-12-23 08:41:13 51°18.426 2°50.974 3.3 118 7.4 101180 91
2002-12-23 08:41:18 51°18.433 2°50.973 3.1 115 7.4 101180 91
2002-12-23 08:41:22 51°18.438 2°50.971 3.2 112 7.4 101180 91
2002-12-23 08:41:27 51°18.444 2°50.969 3.4 108 7.4 101180 91
2002-12-23 08:41:32 51°18.449 2°50.967 3.6 110 7.4 101180 91
2002-12-23 08:41:37 51°18.454 2°50.966 3.5 110 7.4 101180 91
2002-12-23 08:41:43 51°18.46 2°50.964 3.3 111 7.4 101180 91
2002-12-23 08:41:47 51°18.463 2°50.963 3.4 112 7.4 101180 91
2002-12-23 08:41:53 51°18.467 2°50.962 3.7 114 7.4 101180 91
2002-12-23 08:41:58 51°18.47 2°50.961 4.3 116 7.4 101180 91
2002-12-23 08:42:02 51°18.471 2°50.96 4.3 119 7.4 101180 91
2002-12-23 08:42:08 51°18.473 2°50.959 4.4 122 7.4 101180 91
2002-12-23 08:42:12 51°18.474 2°50.959 4 126 7.4 101180 91
2002-12-23 08:42:18 51°18.475 2°50.958 4.7 130 7.4 101180 91
2002-12-23 08:42:22 51°18.476 2°50.958 4.6 135 7.4 101180 91
2002-12-23 08:42:27 51°18.477 2°50.958 4.3 135 7.4 101180 91
2002-12-23 08:42:32 51°18.478 2°50.958 4.5 138 7.4 101180 91
2002-12-23 08:42:38 51°18.479 2°50.958 4.3 139 7.4 101180 91
2002-12-23 08:42:43 51°18.48 2°50.958 4.3 138 7.4 101180 91
2002-12-23 08:42:47 51°18.48 2°50.958 4.3 140 7.4 101180 91
2002-12-23 08:42:52 51°18.481 2°50.958 3.9 139 7.4 101180 91
2002-12-23 08:42:58 51°18.482 2°50.958 4 142 7.4 101180 92
2002-12-23 08:43:02 51°18.483 2°50.958 4.2 143 7.4 101180 92
2002-12-23 08:43:06 51°18.483 2°50.958 4.8 144 7.4 101180 92
2002-12-23 08:43:13 51°18.484 2°50.958 4.4 146 7.4 101180 92
2002-12-23 08:43:18 51°18.485 2°50.959 4.2 147 7.4 101180 92
2002-12-23 08:43:22 51°18.486 2°50.959 4.3 145 7.4 101180 92
2002-12-23 08:43:27 51°18.486 2°50.96 4.1 145 7.4 101180 92
2002-12-23 08:43:33 51°18.487 2°50.96 4.1 148 7.4 101180 92
2002-12-23 08:43:36 51°18.487 2°50.96 4.5 147 7.4 101180 92
2002-12-23 08:43:43 51°18.488 2°50.961 5 148 7.4 101180 92
2002-12-23 08:43:47 51°18.489 2°50.961 4.5 147 7.5 101180 92
2002-12-23 08:43:52 51°18.489 2°50.961 4.6 152 7.5 101180 92
2002-12-23 08:43:58 51°18.49 2°50.962 4.3 153 7.5 101180 92
2002-12-23 08:44:02 51°18.49 2°50.962 4.5 151 7.5 101180 92
2002-12-23 08:44:07 51°18.491 2°50.963 4.5 149 7.5 101180 92
2002-12-23 08:44:13 51°18.492 2°50.964 4.5 149 7.5 101180 92
2002-12-23 08:44:18 51°18.492 2°50.964 4.7 147 7.5 101180 92
2002-12-23 08:44:22 51°18.493 2°50.965 4.4 148 7.5 101180 92
2002-12-23 08:44:27 51°18.493 2°50.965 4.6 148 7.5 101180 92
2002-12-23 08:44:32 51°18.494 2°50.966 4.4 147 7.5 101180 92
2002-12-23 08:44:37 51°18.495 2°50.966 4.6 147 7.5 101180 92
2002-12-23 08:44:42 51°18.495 2°50.967 5 147 7.5 101180 92
2002-12-23 08:44:47 51°18.496 2°50.967 4.6 148 7.5 101180 92
2002-12-23 08:44:53 51°18.497 2°50.968 5 147 7.5 101180 92
2002-12-23 08:44:57 51°18.497 2°50.968 4.5 147 7.4 101180 92
2002-12-23 08:45:02 51°18.498 2°50.969 4.9 147 7.4 101180 92
2002-12-23 08:45:08 51°18.498 2°50.969 4.7 147 7.4 101180 92
2002-12-23 08:45:12 51°18.499 2°50.97 5.2 149 7.4 101180 92
2002-12-23 08:45:18 51°18.5 2°50.971 5 149 7.4 101180 92
2002-12-23 08:45:22 51°18.5 2°50.971 4.8 147 7.4 101180 92
2002-12-23 08:45:28 51°18.501 2°50.972 4.6 147 7.4 101180 92
2002-12-23 08:45:32 51°18.502 2°50.973 4.9 147 7.4 101180 92
2002-12-23 08:45:37 51°18.502 2°50.973 4.7 147 7.4 101180 92
2002-12-23 08:45:42 51°18.503 2°50.974 4.7 147 7.4 101180 92
2002-12-23 08:45:48 51°18.504 2°50.974 4.6 146 7.4 101180 92
2002-12-23 08:45:52 51°18.504 2°50.975 5 147 7.4 101180 92
2002-12-23 08:45:58 51°18.505 2°50.976 5.1 146 7.4 101170 92
2002-12-23 08:46:02 51°18.506 2°50.976 5.4 146 7.4 101170 92
2002-12-23 08:46:08 51°18.507 2°50.977 5.1 145 7.4 101180 92
2002-12-23 08:46:12 51°18.507 2°50.977 5.4 142 7.4 101180 92
2002-12-23 08:46:18 51°18.507 2°50.977 5 140 7.4 101180 92
2002-12-23 08:46:22 51°18.507 2°50.977 4.6 143 7.4 101180 92
2002-12-23 08:46:27 51°18.507 2°50.976 5.1 143 7.4 101180 92
2002-12-23 08:46:32 51°18.507 2°50.976 5.1 144 7.4 101180 92
2002-12-23 08:46:38 51°18.508 2°50.976 4.4 143 7.4 101180 92
2002-12-23 08:46:42 51°18.508 2°50.976 4.5 145 7.4 101180 92
2002-12-23 08:46:47 51°18.508 2°50.976 4.7 144 7.4 101180 92
2002-12-23 08:46:53 51°18.508 2°50.975 4.7 146 7.4 101180 92
2002-12-23 08:46:58 51°18.508 2°50.975 4.8 147 7.4 101180 92
2002-12-23 08:47:02 51°18.508 2°50.974 4.8 147 7.4 101180 92
2002-12-23 08:47:06 51°18.508 2°50.974 4.4 148 7.4 101180 92
2002-12-23 08:47:13 51°18.508 2°50.974 4.3 147 7.4 101180 92
2002-12-23 08:47:17 51°18.508 2°50.973 4.6 151 7.4 101170 92
2002-12-23 08:47:22 51°18.507 2°50.973 4.8 147 7.4 101170 92
2002-12-23 08:47:28 51°18.507 2°50.972 4.9 148 7.4 101180 92
2002-12-23 08:47:32 51°18.507 2°50.972 4.6 150 7.4 101180 92
2002-12-23 08:47:38 51°18.507 2°50.971 4.4 148 7.4 101170 92
2002-12-23 08:47:42 51°18.507 2°50.97 4.7 150 7.4 101170 92
2002-12-23 08:47:47 51°18.507 2°50.97 4.4 149 7.4 101180 92
2002-12-23 08:47:53 51°18.506 2°50.969 4.5 149 7.4 101180 92
2002-12-23 08:47:58 51°18.506 2°50.969 4.7 147 7.4 101180 92
2002-12-23 08:48:02 51°18.506 2°50.968 4.9 148 7.4 101180 92
2002-12-23 08:48:06 51°18.506 2°50.968 5 148 7.4 101180 92
2002-12-23 08:48:13 51°18.506 2°50.967 4.7 146 7.4 101180 92
2002-12-23 08:48:17 51°18.505 2°50.966 4.4 147 7.4 101180 92
2002-12-23 08:48:22 51°18.505 2°50.966 4.7 143 7.4 101180 92
2002-12-23 08:48:27 51°18.505 2°50.965 4.4 142 7.4 101180 92
2002-12-23 08:48:32 51°18.504 2°50.964 4.8 144 7.4 101180 92
2002-12-23 08:48:36 51°18.504 2°50.964 4.5 145 7.4 101180 92
2002-12-23 08:48:42 51°18.504 2°50.963 4.2 142 7.4 101180 92
2002-12-23 08:48:48 51°18.503 2°50.962 4.6 145 7.4 101170 92
2002-12-23 08:48:52 51°18.503 2°50.961 4.4 148 7.4 101170 92
2002-12-23 08:48:58 51°18.502 2°50.96 4.6 148 7.4 101180 92
2002-12-23 08:49:02 51°18.502 2°50.959 4.5 145 7.4 101180 92
2002-12-23 08:49:07 51°18.502 2°50.958 4.5 148 7.4 101170 92
2002-12-23 08:49:12 51°18.501 2°50.958 4.1 150 7.4 101170 92
2002-12-23 08:49:17 51°18.501 2°50.957 4.3 148 7.4 101180 92
2002-12-23 08:49:22 51°18.501 2°50.955 4.8 145 7.4 101180 92
2002-12-23 08:49:26 51°18.5 2°50.955 4.1 151 7.4 101180 92
2002-12-23 08:49:33 51°18.499 2°50.954 4.4 152 7.4 101180 92
2002-12-23 08:49:38 51°18.499 2°50.953 4.4 150 7.4 101180 92
2002-12-23 08:49:42 51°18.499 2°50.952 3.9 150 7.4 101180 92
2002-12-23 08:49:46 51°18.498 2°50.952 4 153 7.4 101180 92
2002-12-23 08:49:52 51°18.498 2°50.95 4.3 154 7.4 101180 92
2002-12-23 08:49:58 51°18.497 2°50.949 3.9 151 7.4 101180 92
2002-12-23 08:50:02 51°18.497 2°50.949 4.2 153 7.4 101180 92
2002-12-23 08:50:07 51°18.496 2°50.948 4.5 150 7.4 101180 92
2002-12-23 08:50:12 51°18.496 2°50.946 4.8 149 7.4 101180 92
2002-12-23 08:50:18 51°18.495 2°50.945 3.8 150 7.4 101170 92
2002-12-23 08:50:22 51°18.495 2°50.945 3.9 148 7.4 101170 92
2002-12-23 08:50:27 51°18.495 2°50.944 4.3 155 7.4 101180 92
2002-12-23 08:50:32 51°18.494 2°50.943 4.3 151 7.4 101180 92
2002-12-23 08:50:37 51°18.494 2°50.942 4 149 7.4 101180 92
2002-12-23 08:50:42 51°18.493 2°50.941 3.8 153 7.4 101180 92
2002-12-23 08:50:48 51°18.493 2°50.939 4.1 149 7.4 101180 92
2002-12-23 08:50:52 51°18.492 2°50.939 4.2 149 7.4 101180 92
2002-12-23 08:50:58 51°18.492 2°50.937 4.2 150 7.4 101170 92
2002-12-23 08:51:02 51°18.491 2°50.936 4.2 155 7.4 101170 92
2002-12-23 08:51:07 51°18.491 2°50.935 4.5 152 7.4 101180 92
2002-12-23 08:51:13 51°18.49 2°50.934 4.7 149 7.4 101180 92
2002-12-23 08:51:18 51°18.49 2°50.933 4.3 153 7.4 101180 92
2002-12-23 08:51:22 51°18.489 2°50.932 3.5 154 7.4 101180 92
2002-12-23 08:51:27 51°18.489 2°50.931 4.1 149 7.4 101170 92
2002-12-23 08:51:32 51°18.488 2°50.93 3.7 154 7.4 101170 92
2002-12-23 08:51:37 51°18.488 2°50.929 4.4 155 7.4 101180 92
2002-12-23 08:51:42 51°18.487 2°50.928 4 152 7.4 101180 92
2002-12-23 08:51:47 51°18.487 2°50.927 4.4 150 7.3 101170 92
2002-12-23 08:51:52 51°18.486 2°50.925 4.6 150 7.3 101170 92
2002-12-23 08:51:58 51°18.486 2°50.924 4.1 156 7.4 101180 92
2002-12-23 08:52:02 51°18.485 2°50.923 4.5 154 7.4 101180 92
2002-12-23 08:52:08 51°18.484 2°50.922 4.2 153 7.3 101180 92
2002-12-23 08:52:12 51°18.484 2°50.921 4.1 151 7.3 101180 92
2002-12-23 08:52:16 51°18.483 2°50.92 4.2 153 7.4 101180 92
2002-12-23 08:52:22 51°18.483 2°50.919 4.3 155 7.4 101180 92
2002-12-23 08:52:27 51°18.482 2°50.918 4.1 154 7.3 101170 92
2002-12-23 08:52:32 51°18.481 2°50.917 4.2 151 7.3 101170 92
2002-12-23 08:52:38 51°18.48 2°50.915 4.2 152 7.3 101180 92
2002-12-23 08:52:43 51°18.48 2°50.914 4.7 149 7.3 101180 92
2002-12-23 08:52:47 51°18.479 2°50.913 4.9 159 7.3 101170 92
2002-12-23 08:52:53 51°18.478 2°50.912 4.4 150 7.3 101170 92
2002-12-23 08:52:57 51°18.478 2°50.91 4.6 151 7.3 101180 92
2002-12-23 08:53:02 51°18.477 2°50.909 4.4 145 7.3 101180 92
2002-12-23 08:53:06 51°18.476 2°50.908 4.1 153 7.3 101170 92
2002-12-23 08:53:12 51°18.475 2°50.907 4.3 161 7.3 101170 92
2002-12-23 08:53:18 51°18.475 2°50.905 4.3 158 7.3 101170 92
2002-12-23 08:53:23 51°18.474 2°50.904 3.8 150 7.3 101170 92
2002-12-23 08:53:27 51°18.473 2°50.903 4.1 147 7.4 101180 92
2002-12-23 08:53:32 51°18.473 2°50.901 4.4 146 7.4 101180 92
2002-12-23 08:53:38 51°18.472 2°50.9 4 151 7.3 101170 92
2002-12-23 08:53:42 51°18.471 2°50.899 4.6 148 7.3 101170 92
2002-12-23 08:53:48 51°18.47 2°50.897 4.4 149 7.4 101180 92
2002-12-23 08:53:52 51°18.47 2°50.896 4.1 156 7.4 101180 92
2002-12-23 08:53:57 51°18.469 2°50.895 4 157 7.3 101180 92
2002-12-23 08:54:02 51°18.468 2°50.894 4.4 153 7.3 101180 92
2002-12-23 08:54:07 51°18.468 2°50.892 4.1 152 7.3 101170 92
2002-12-23 08:54:12 51°18.467 2°50.891 4.1 156 7.3 101170 92
2002-12-23 08:54:18 51°18.466 2°50.89 4.4 156 7.3 101180 92
2002-12-23 08:54:22 51°18.466 2°50.889 4.5 153 7.3 101180 92
2002-12-23 08:54:27 51°18.465 2°50.888 4.4 153 7.3 101180 92
2002-12-23 08:54:32 51°18.465 2°50.887 4.3 150 7.3 101180 92
2002-12-23 08:54:38 51°18.464 2°50.886 4.3 153 7.3 101160 92
2002-12-23 08:54:43 51°18.464 2°50.884 4.5 152 7.3 101160 92
2002-12-23 08:54:47 51°18.463 2°50.883 5 152 7.3 101170 92
2002-12-23 08:54:52 51°18.463 2°50.882 4.8 153 7.3 101170 92
2002-12-23 08:54:58 51°18.462 2°50.881 4.3 153 7.3 101180 92
2002-12-23 08:55:03 51°18.461 2°50.88 4.5 151 7.3 101180 92
2002-12-23 08:55:06 51°18.461 2°50.879 4.4 149 7.3 101180 92
2002-12-23 08:55:13 51°18.46 2°50.878 4.5 150 7.3 101180 92
2002-12-23 08:55:18 51°18.459 2°50.877 5.2 153 7.3 101180 92
2002-12-23 08:55:22 51°18.459 2°50.876 5 148 7.3 101180 92
2002-12-23 08:55:28 51°18.458 2°50.875 4.7 151 7.3 101180 92
2002-12-23 08:55:32 51°18.458 2°50.874 4.6 152 7.3 101180 92
2002-12-23 08:55:37 51°18.457 2°50.873 4.2 152 7.3 101180 92
2002-12-23 08:55:42 51°18.456 2°50.872 4.7 151 7.3 101180 92
2002-12-23 08:55:47 51°18.456 2°50.871 5.1 150 7.3 101180 92
2002-12-23 08:55:53 51°18.456 2°50.87 4.7 151 7.3 101180 92
2002-12-23 08:55:57 51°18.455 2°50.869 4.4 150 7.3 101170 92
2002-12-23 08:56:02 51°18.455 2°50.868 4.7 150 7.3 101170 92
2002-12-23 08:56:07 51°18.454 2°50.868 4.3 151 7.3 101180 92
2002-12-23 08:56:13 51°18.453 2°50.866 5 150 7.3 101180 92
2002-12-23 08:56:17 51°18.453 2°50.865 4.2 152 7.3 101180 93
2002-12-23 08:56:22 51°18.452 2°50.865 4.6 152 7.3 101180 93
2002-12-23 08:56:28 51°18.451 2°50.864 4.7 152 7.3 101180 93
2002-12-23 08:56:32 51°18.451 2°50.863 4.6 154 7.3 101180 93
2002-12-23 08:56:36 51°18.45 2°50.862 4.6 155 7.3 101180 93
2002-12-23 08:56:42 51°18.45 2°50.861 4.7 155 7.3 101180 93
2002-12-23 08:56:48 51°18.449 2°50.86 4.2 156 7.4 101170 93
2002-12-23 08:56:52 51°18.448 2°50.86 4.1 156 7.4 101170 93
2002-12-23 08:56:58 51°18.448 2°50.859 4.7 157 7.4 101180 93
2002-12-23 08:57:02 51°18.447 2°50.858 4.2 156 7.4 101180 93
2002-12-23 08:57:08 51°18.446 2°50.858 2.6 158 7.4 101180 93
2002-12-23 08:57:13 51°18.446 2°50.857 4.5 157 7.4 101180 93
2002-12-23 08:57:18 51°18.445 2°50.856 4.7 159 7.4 101170 93
2002-12-23 08:57:22 51°18.444 2°50.855 4.6 157 7.4 101170 93
2002-12-23 08:57:27 51°18.444 2°50.855 4.5 159 7.3 101180 93
2002-12-23 08:57:33 51°18.443 2°50.854 4.7 160 7.3 101180 93
2002-12-23 08:57:38 51°18.442 2°50.853 4.4 161 7.3 101180 93
2002-12-23 08:57:42 51°18.442 2°50.853 4.1 160 7.3 101180 93
2002-12-23 08:57:47 51°18.441 2°50.852 4.5 162 7.4 101180 93
2002-12-23 08:57:52 51°18.44 2°50.851 4.9 161 7.4 101180 93
2002-12-23 08:57:58 51°18.439 2°50.851 4.6 162 7.4 101180 93
2002-12-23 08:58:03 51°18.439 2°50.85 4.6 161 7.4 101180 93
2002-12-23 08:58:07 51°18.438 2°50.85 4.4 163 7.4 101180 93
2002-12-23 08:58:12 51°18.437 2°50.849 4.6 163 7.4 101180 93
2002-12-23 08:58:17 51°18.437 2°50.848 4.9 163 7.4 101180 93
2002-12-23 08:58:22 51°18.436 2°50.847 4.5 164 7.4 101180 93
2002-12-23 08:58:26 51°18.435 2°50.847 4.3 167 7.4 101180 93
2002-12-23 08:58:33 51°18.434 2°50.846 4.2 164 7.4 101180 93
2002-12-23 08:58:37 51°18.433 2°50.846 4.3 163 7.4 101180 93
2002-12-23 08:58:42 51°18.432 2°50.845 4.3 168 7.4 101180 93
2002-12-23 08:58:48 51°18.431 2°50.844 4.2 168 7.4 101190 93
2002-12-23 08:58:52 51°18.431 2°50.844 4.2 167 7.4 101190 93
2002-12-23 08:58:57 51°18.43 2°50.844 4.2 169 7.4 101180 93
2002-12-23 08:59:02 51°18.429 2°50.843 4.4 168 7.4 101180 93
2002-12-23 08:59:06 51°18.429 2°50.843 4.6 167 7.4 101170 93
2002-12-23 08:59:12 51°18.427 2°50.842 4.8 170 7.4 101170 93
2002-12-23 08:59:18 51°18.426 2°50.841 4.4 171 7.4 101180 93
2002-12-23 08:59:22 51°18.426 2°50.841 4.1 169 7.4 101180 93
2002-12-23 08:59:28 51°18.425 2°50.841 4.4 172 7.4 101170 93
2002-12-23 08:59:33 51°18.424 2°50.84 4.2 173 7.4 101170 93
2002-12-23 08:59:37 51°18.423 2°50.84 5 171 7.3 101180 93
2002-12-23 08:59:42 51°18.422 2°50.839 4.9 174 7.3 101180 93
2002-12-23 08:59:47 51°18.421 2°50.84 4.4 180 7.3 101170 92
2002-12-23 08:59:52 51°18.421 2°50.844 4.5 189 7.3 101170 92
2002-12-23 08:59:58 51°18.42 2°50.851 5.5 191 7.3 101180 92
2002-12-23 09:00:03 51°18.419 2°50.86 6.3 200 7.3 101180 92
2002-12-23 09:00:07 51°18.417 2°50.868 6.9 196 7.3 101180 92
2002-12-23 09:00:13 51°18.416 2°50.882 6.2 190 7.3 101180 92
2002-12-23 09:00:18 51°18.417 2°50.895 6.3 189 7.3 101180 92
2002-12-23 09:00:22 51°18.418 2°50.908 6.7 192 7.3 101180 92
2002-12-23 09:00:27 51°18.422 2°50.924 7.1 192 7.3 101170 92
2002-12-23 09:00:32 51°18.425 2°50.943 7.9 200 7.3 101170 92
2002-12-23 09:00:36 51°18.429 2°50.958 7.9 199 7.3 101170 93
2002-12-23 09:00:42 51°18.435 2°50.983 8.4 203 7.3 101170 93
2002-12-23 09:00:46 51°18.44 2°51 8.7 205 7.3 101170 93
2002-12-23 09:00:53 51°18.449 2°51.032 8.5 200 7.3 101170 93
2002-12-23 09:00:57 51°18.454 2°51.051 8.9 202 7.3 101170 93
2002-12-23 09:01:02 51°18.461 2°51.075 9.3 200 7.3 101170 93
2002-12-23 09:01:08 51°18.469 2°51.104 9 201 7.3 101170 93
2002-12-23 09:01:12 51°18.474 2°51.123 9.3 203 7.3 101170 93
2002-12-23 09:01:18 51°18.483 2°51.153 9.6 202 7.3 101160 93
2002-12-23 09:01:22 51°18.487 2°51.173 8.9 201 7.3 101160 93
2002-12-23 09:01:28 51°18.495 2°51.203 9.5 204 7.3 101160 93
2002-12-23 09:01:33 51°18.501 2°51.229 9 203 7.3 101160 93
2002-12-23 09:01:38 51°18.507 2°51.254 9.7 201 7.3 101160 93
2002-12-23 09:01:43 51°18.513 2°51.28 9.6 201 7.3 101160 93
2002-12-23 09:01:46 51°18.517 2°51.295 10.1 204 7.3 101160 93
2002-12-23 09:01:52 51°18.524 2°51.327 9.5 201 7.3 101160 93
2002-12-23 09:01:58 51°18.53 2°51.358 9.6 202 7.3 101160 93
2002-12-23 09:02:02 51°18.534 2°51.379 10.1 203 7.3 101160 93
2002-12-23 09:02:07 51°18.54 2°51.406 10.6 205 7.4 101160 93
2002-12-23 09:02:12 51°18.545 2°51.432 10.6 204 7.4 101160 93
2002-12-23 09:02:18 51°18.552 2°51.464 9.8 205 7.4 101160 93
2002-12-23 09:02:23 51°18.557 2°51.49 10.1 204 7.4 101160 93
2002-12-23 09:02:26 51°18.56 2°51.506 10.1 205 7.4 101160 93
2002-12-23 09:02:33 51°18.567 2°51.544 9.7 204 7.4 101160 93
2002-12-23 09:02:37 51°18.572 2°51.565 10.1 204 7.4 101160 93
2002-12-23 09:02:42 51°18.577 2°51.591 10.2 205 7.4 101160 93
2002-12-23 09:02:47 51°18.583 2°51.618 9.8 203 7.5 101170 93
2002-12-23 09:02:50 51°18.586 2°51.634 9.9 204 7.5 101170 93
2002-12-23 09:02:58 51°18.594 2°51.677 10.3 205 7.5 101170 93
2002-12-23 09:03:02 51°18.599 2°51.698 9.9 206 7.5 101170 93
2002-12-23 09:03:07 51°18.604 2°51.725 10.1 206 7.4 101160 93
2002-12-23 09:03:12 51°18.609 2°51.751 9.6 207 7.4 101160 93
2002-12-23 09:03:18 51°18.616 2°51.783 10.1 208 7.5 101170 93
2002-12-23 09:03:22 51°18.619 2°51.805 10.2 206 7.5 101170 93
2002-12-23 09:03:26 51°18.624 2°51.827 10.1 204 7.4 101170 93
2002-12-23 09:03:33 51°18.63 2°51.865 4.4 208 7.4 101170 93
2002-12-23 09:03:38 51°18.635 2°51.892 10.1 204 7.4 101170 93
2002-12-23 09:03:42 51°18.639 2°51.914 10.3 205 7.4 101170 93
2002-12-23 09:03:47 51°18.644 2°51.94 10.3 206 7.4 101170 93
2002-12-23 09:03:51 51°18.648 2°51.962 10.3 205 7.4 101170 93
2002-12-23 09:03:58 51°18.656 2°51.999 10.1 204 7.4 101180 93
2002-12-23 09:04:02 51°18.66 2°52.02 10.6 206 7.4 101180 93
2002-12-23 09:04:06 51°18.664 2°52.041 10.2 205 7.4 101180 93
2002-12-23 09:04:13 51°18.671 2°52.079 10.5 203 7.4 101180 93
2002-12-23 09:04:18 51°18.676 2°52.106 10.2 203 7.4 101170 93
2002-12-23 09:04:22 51°18.681 2°52.127 10.5 202 7.4 101170 93
2002-12-23 09:04:28 51°18.686 2°52.16 10.2 202 7.4 101170 93
2002-12-23 09:04:32 51°18.69 2°52.181 10.3 201 7.4 101170 93
2002-12-23 09:04:37 51°18.696 2°52.208 9.7 202 7.4 101170 93
2002-12-23 09:04:43 51°18.702 2°52.24 9.8 201 7.4 101170 93
2002-12-23 09:04:46 51°18.705 2°52.255 10.5 201 7.4 101170 93
2002-12-23 09:04:53 51°18.713 2°52.293 9.8 200 7.4 101170 93
2002-12-23 09:04:57 51°18.718 2°52.314 10 200 7.4 101170 93
2002-12-23 09:05:02 51°18.724 2°52.34 9.7 198 7.4 101170 93
2002-12-23 09:05:06 51°18.728 2°52.361 9.8 201 7.4 101170 93
2002-12-23 09:05:10 51°18.732 2°52.382 9.6 199 7.4 101170 93
2002-12-23 09:05:18 51°18.74 2°52.425 9.7 200 7.4 101170 93
2002-12-23 09:05:22 51°18.745 2°52.446 9.7 200 7.4 101170 93
2002-12-23 09:05:28 51°18.752 2°52.478 10 201 7.5 101170 93
2002-12-23 09:05:32 51°18.756 2°52.499 9.9 200 7.5 101170 93
2002-12-23 09:05:38 51°18.763 2°52.531 10.2 203 7.5 101170 93
2002-12-23 09:05:42 51°18.767 2°52.553 9.4 205 7.5 101170 93
2002-12-23 09:05:48 51°18.773 2°52.585 9.4 203 7.5 101170 93
2002-12-23 09:05:52 51°18.778 2°52.606 9.1 203 7.5 101170 93
2002-12-23 09:05:58 51°18.784 2°52.638 9.5 204 7.5 101170 93
2002-12-23 09:06:02 51°18.788 2°52.659 9.8 204 7.5 101170 93
2002-12-23 09:06:08 51°18.795 2°52.691 9.8 203 7.5 101180 93
2002-12-23 09:06:10 51°18.796 2°52.702 10 204 7.5 101180 93
2002-12-23 09:06:18 51°18.804 2°52.745 10.2 202 7.4 101180 93
2002-12-23 09:06:23 51°18.808 2°52.773 9.7 202 7.4 101180 93
2002-12-23 09:06:28 51°18.813 2°52.8 9.8 202 7.4 101180 93
2002-12-23 09:06:33 51°18.819 2°52.826 9.8 203 7.4 101180 93
2002-12-23 09:06:38 51°18.824 2°52.853 10.2 201 7.4 101170 93
2002-12-23 09:06:42 51°18.829 2°52.874 10 203 7.4 101170 93
2002-12-23 09:06:47 51°18.835 2°52.901 9.9 204 7.5 101180 93
2002-12-23 09:06:52 51°18.84 2°52.927 9.7 203 7.5 101180 93
2002-12-23 09:06:58 51°18.847 2°52.959 9.8 203 7.5 101180 93
2002-12-23 09:07:02 51°18.852 2°52.98 9.9 203 7.5 101180 93
2002-12-23 09:07:08 51°18.859 2°53.012 9.3 205 7.5 101170 93
2002-12-23 09:07:12 51°18.863 2°53.033 9.5 202 7.5 101170 93
2002-12-23 09:07:18 51°18.868 2°53.066 9.7 204 7.5 101180 93
2002-12-23 09:07:22 51°18.872 2°53.088 9.4 208 7.5 101180 93
2002-12-23 09:07:28 51°18.878 2°53.12 9.1 201 7.5 101180 93
2002-12-23 09:07:32 51°18.882 2°53.141 9.2 203 7.5 101180 93
2002-12-23 09:07:38 51°18.888 2°53.173 8.5 207 7.5 101180 93
2002-12-23 09:07:42 51°18.892 2°53.195 8.8 206 7.5 101180 93
2002-12-23 09:07:48 51°18.899 2°53.227 8.5 207 7.5 101180 93
2002-12-23 09:07:53 51°18.904 2°53.254 8.8 206 7.5 101180 93
2002-12-23 09:07:58 51°18.909 2°53.281 9.1 204 7.4 101190 93
2002-12-23 09:08:02 51°18.913 2°53.303 8.5 209 7.4 101190 93
2002-12-23 09:08:08 51°18.919 2°53.335 8.9 205 7.4 101190 93
2002-12-23 09:08:12 51°18.923 2°53.357 9.2 202 7.4 101190 93
2002-12-23 09:08:18 51°18.929 2°53.389 9.7 203 7.4 101180 93
2002-12-23 09:08:22 51°18.933 2°53.41 9.5 203 7.4 101180 93
2002-12-23 09:08:28 51°18.939 2°53.443 9.5 201 7.4 101180 93
2002-12-23 09:08:32 51°18.943 2°53.464 9.9 201 7.4 101180 93
2002-12-23 09:08:38 51°18.95 2°53.497 9.4 203 7.4 101180 93
2002-12-23 09:08:42 51°18.954 2°53.519 9.6 202 7.4 101180 93
2002-12-23 09:08:48 51°18.96 2°53.55 9.6 200 7.3 101180 93
2002-12-23 09:08:52 51°18.964 2°53.572 9.2 203 7.3 101180 93
2002-12-23 09:08:58 51°18.971 2°53.604 9.2 201 7.3 101180 93
2002-12-23 09:09:02 51°18.975 2°53.626 8.9 201 7.3 101180 93
2002-12-23 09:09:08 51°18.982 2°53.658 9.7 202 7.3 101180 93
2002-12-23 09:09:12 51°18.986 2°53.68 9 203 7.3 101180 93
2002-12-23 09:09:18 51°18.993 2°53.712 9.2 202 7.3 101180 93
2002-12-23 09:09:22 51°18.997 2°53.733 9.1 202 7.3 101180 93
2002-12-23 09:09:28 51°19.004 2°53.765 9 202 7.3 101180 93
2002-12-23 09:09:32 51°19.009 2°53.787 9.6 204 7.3 101180 93
2002-12-23 09:09:38 51°19.016 2°53.819 9.6 202 7.3 101180 93
2002-12-23 09:09:43 51°19.022 2°53.845 9.4 203 7.3 101180 93
2002-12-23 09:09:48 51°19.027 2°53.872 9.4 200 7.3 101180 93
2002-12-23 09:09:53 51°19.033 2°53.898 9.2 201 7.3 101180 93
2002-12-23 09:09:58 51°19.038 2°53.926 9.9 202 7.3 101180 93
2002-12-23 09:10:02 51°19.043 2°53.947 9.6 201 7.3 101180 93
2002-12-23 09:10:08 51°19.05 2°53.979 9.6 200 7.4 101180 93
2002-12-23 09:10:12 51°19.054 2°54 9.7 200 7.4 101180 93
2002-12-23 09:10:18 51°19.06 2°54.032 9.4 202 7.3 101180 93
2002-12-23 09:10:22 51°19.065 2°54.053 9.6 201 7.3 101180 93
2002-12-23 09:10:28 51°19.072 2°54.085 9.4 202 7.3 101180 93
2002-12-23 09:10:32 51°19.076 2°54.107 9.7 199 7.3 101180 93
2002-12-23 09:10:38 51°19.083 2°54.138 9.1 201 7.3 101180 93
2002-12-23 09:10:43 51°19.088 2°54.164 9.6 202 7.3 101180 93
2002-12-23 09:10:48 51°19.094 2°54.191 9.5 200 7.4 101180 93
2002-12-23 09:10:52 51°19.097 2°54.213 9.6 201 7.4 101180 93
2002-12-23 09:10:58 51°19.104 2°54.245 9.5 200 7.4 101180 93
2002-12-23 09:11:02 51°19.108 2°54.266 9.7 201 7.4 101180 93
2002-12-23 09:11:08 51°19.115 2°54.298 9.5 201 7.4 101180 93
2002-12-23 09:11:12 51°19.12 2°54.319 9.5 200 7.4 101180 93
2002-12-23 09:11:18 51°19.126 2°54.35 9.3 200 7.4 101180 93
2002-12-23 09:11:22 51°19.13 2°54.372 9.2 200 7.4 101180 93
2002-12-23 09:11:28 51°19.136 2°54.404 9.6 202 7.4 101190 93
2002-12-23 09:11:32 51°19.139 2°54.426 9.5 202 7.4 101190 93
2002-12-23 09:11:38 51°19.145 2°54.458 9.1 202 7.4 101180 93
2002-12-23 09:11:43 51°19.15 2°54.485 9.6 200 7.4 101180 93
2002-12-23 09:11:48 51°19.154 2°54.513 9.2 203 7.4 101180 93
2002-12-23 09:11:52 51°19.157 2°54.534 9.6 201 7.4 101180 93
2002-12-23 09:11:58 51°19.163 2°54.567 9.3 203 7.4 101180 93
2002-12-23 09:12:02 51°19.167 2°54.588 9.5 203 7.4 101180 93
2002-12-23 09:12:08 51°19.173 2°54.621 9.2 204 7.4 101180 93
2002-12-23 09:12:13 51°19.177 2°54.648 9.2 203 7.4 101180 93
2002-12-23 09:12:18 51°19.182 2°54.675 9.5 203 7.4 101180 93
2002-12-23 09:12:22 51°19.185 2°54.696 9.4 203 7.4 101180 93
2002-12-23 09:12:28 51°19.191 2°54.729 9.7 204 7.4 101180 93
2002-12-23 09:12:32 51°19.195 2°54.751 9.6 205 7.4 101180 93
2002-12-23 09:12:38 51°19.201 2°54.783 9.5 201 7.4 101180 93
2002-12-23 09:12:42 51°19.205 2°54.804 9.6 202 7.4 101180 93
2002-12-23 09:12:48 51°19.211 2°54.836 9.5 202 7.4 101190 93
2002-12-23 09:12:52 51°19.215 2°54.858 9.2 206 7.4 101190 93
2002-12-23 09:12:58 51°19.222 2°54.89 9.7 203 7.4 101180 93
2002-12-23 09:13:03 51°19.227 2°54.917 9.7 203 7.4 101180 93
2002-12-23 09:13:08 51°19.232 2°54.943 9.2 201 7.4 101190 93
2002-12-23 09:13:13 51°19.237 2°54.97 9.6 203 7.4 101190 93
2002-12-23 09:13:18 51°19.243 2°54.997 9.4 202 7.4 101180 93
2002-12-23 09:13:22 51°19.247 2°55.019 9.9 201 7.4 101180 93
2002-12-23 09:13:28 51°19.254 2°55.05 9.9 201 7.4 101180 93
2002-12-23 09:13:32 51°19.258 2°55.072 10 202 7.4 101180 93
2002-12-23 09:13:38 51°19.265 2°55.104 10 202 7.4 101180 93
2002-12-23 09:13:42 51°19.269 2°55.125 9.9 203 7.4 101180 93
2002-12-23 09:13:48 51°19.276 2°55.157 9.7 202 7.4 101180 93
2002-12-23 09:13:52 51°19.28 2°55.178 10 201 7.4 101180 93
2002-12-23 09:13:58 51°19.286 2°55.21 10 201 7.3 101180 93
2002-12-23 09:14:02 51°19.291 2°55.231 9.6 202 7.3 101180 93
2002-12-23 09:14:08 51°19.297 2°55.263 9.5 204 7.3 101180 93
2002-12-23 09:14:13 51°19.303 2°55.29 9.4 203 7.3 101180 93
2002-12-23 09:14:18 51°19.308 2°55.317 9.4 205 7.4 101190 93
2002-12-23 09:14:22 51°19.312 2°55.338 9.9 203 7.4 101190 93
2002-12-23 09:14:28 51°19.318 2°55.371 9.6 202 7.3 101190 93
2002-12-23 09:14:32 51°19.322 2°55.392 9.3 202 7.3 101190 93
2002-12-23 09:14:38 51°19.328 2°55.424 9.5 200 7.4 101190 93
2002-12-23 09:14:42 51°19.332 2°55.446 9.7 200 7.4 101190 93
2002-12-23 09:14:48 51°19.338 2°55.478 9.5 201 7.3 101180 93
2002-12-23 09:14:52 51°19.343 2°55.499 9.8 200 7.3 101180 93
2002-12-23 09:14:58 51°19.349 2°55.531 9.4 201 7.3 101190 93
2002-12-23 09:15:02 51°19.353 2°55.552 9.4 200 7.3 101190 93
2002-12-23 09:15:08 51°19.36 2°55.584 9.6 202 7.3 101190 93
2002-12-23 09:15:12 51°19.364 2°55.605 9.6 202 7.3 101190 93
2002-12-23 09:15:18 51°19.37 2°55.637 9 202 7.3 101180 93
2002-12-23 09:15:22 51°19.374 2°55.658 9.2 202 7.3 101180 93
2002-12-23 09:15:28 51°19.38 2°55.69 9.6 203 7.4 101190 93
2002-12-23 09:15:32 51°19.384 2°55.711 9.7 201 7.4 101190 93
2002-12-23 09:15:38 51°19.39 2°55.743 9 199 7.4 101190 93
2002-12-23 09:15:43 51°19.396 2°55.77 9.5 200 7.4 101190 93
2002-12-23 09:15:48 51°19.401 2°55.796 9.4 200 7.3 101190 93
2002-12-23 09:15:53 51°19.407 2°55.823 8.9 200 7.3 101190 93
2002-12-23 09:15:58 51°19.412 2°55.849 9.1 201 7.4 101190 93
2002-12-23 09:16:02 51°19.416 2°55.87 8.9 199 7.4 101190 93
2002-12-23 09:16:08 51°19.423 2°55.902 8.8 203 7.4 101190 93
2002-12-23 09:16:12 51°19.428 2°55.923 8.9 203 7.4 101190 93
2002-12-23 09:16:18 51°19.435 2°55.955 8.8 202 7.4 101190 93
2002-12-23 09:16:22 51°19.439 2°55.976 8.7 201 7.4 101190 93
2002-12-23 09:16:28 51°19.447 2°56.007 8.6 200 7.4 101190 93
2002-12-23 09:16:32 51°19.451 2°56.028 8.8 202 7.4 101190 93
2002-12-23 09:16:38 51°19.458 2°56.06 8.4 203 7.4 101190 93